Location: Kunchanapalle
(16.4623°N, 80.6176°E)
Time: 10:13:26
(UTC+00:00)

ATLAS 2AS CENTAUR R/B - Pass Details

Date: 13 August 2020
Orbit: 938 x 1273 km, 63.7° (Epoch: 18 September)

Event Time Altitude Azimuth Distance (km) Brightness Sun altitude
Exits shadow 22:10:04 17° 166° (SSE) 2,642 4.6 -30.2°
Maximum altitude 22:15:10 36° 110° (ESE) 1,855 4.2 -29.1°
Drops below altitude 10° 22:22:12 10° 47° (NE) 3,254 6.1 -27.6°
Sets 22:25:17 0° 39° (NE) 4,230 6.8 -26.9°
